Regional Weather Roundup
Issued by NWS

Home | Current Version | Previous Version | Text Only | Print | Product List | Glossary On
Versions: 1 2 3 4 5 6 7 8 9 10 11 12 13 14 15 16 17 18 19 20 21 22 23 24 25 26 27 28 29 30 31 32 33 34 35 36 37 38 39 40 41 42 43 44 45 46 47 48 49 50
368
ASUS44 KLIX 210401
RWRLA
LOUISIANA WEATHER ROUNDUP
NATIONAL WEATHER SERVICE NEW ORLEANS LA
1100 PM CDT SUN APR 20 2014

NOTE: "FAIR" INDICATES FEW OR NO CLOUDS BELOW 12,000 FEET WITH NO
      SIGNIFICANT WEATHER AND/OR OBSTRUCTIONS TO VISIBILITY.
      SKY/WX - SKY CONDITION AND SIGNIFICANT WEATHER.
      TMP - AIR TEMPERATURE.    DP   - DEWPOINT TEMPERATURE.
      RH  - RELATIVE HUMIDITY.  PRES - PRESSURE.
      HX  - HEAT INDEX.         WCI  - WIND CHILL INDEX.

*  THESE STATIONS ARE NOT NWS OR FAA STATIONS AND ARE NOT UNDER
   NWS QUALITY CONTROL.

LAZ040-048-061>063-065-066-069-210500-
SOUTHEAST LOUISIANA

CITY           SKY/WX    TMP DP  RH WIND       PRES   REMARKS
N.O. AUDUBON     N/A     67  61  79 MISG        N/A
N.O. INTL ARPT PTCLDY    66  62  87 SE9       30.14R
N.O. LAKEFRONT CLEAR     65  61  87 SE9       30.15R
N.O. DOWNTOWN* FAIR      66  57  72 S5        30.15S
SLIDELL        CLEAR     63  58  83 SE5       30.14R
BATON ROUGE    CLEAR     69  54  58 SW7       30.11S
BOOTHVILLE     CLEAR     61  58  90 E6        30.16R
BELLE CHASSE   CLEAR    N/A N/A N/A SE6       30.14R
BOGALUSA*        N/A     64  58  81 S5        30.16R
GALLIANO*      NOT AVBL
NEW ROADS*     NOT AVBL
GONZALES*      FAIR      65  59  81 CALM      30.11S
HAMMOND*       NOT AVBL
HOUMA*           N/A     62  58  87 CALM      30.13S
PORT FOURCHON* PTCLDY    66  61  82 SE13      30.15S

$$

LAZ041-044-053-054-210500-
SOUTHWEST LOUISIANA

CITY           SKY/WX    TMP DP  RH WIND       PRES   REMARKS
LAKE CHARLES   CLEAR     60  57  89 SW3       30.11R
LAFAYETTE      CLEAR     66  60  81 S3        30.11S
PATTERSON      CLEAR     64  61  88 CALM      30.16S
SALT POINT       N/A     68  64  87 CALM      30.12S
NEW IBERIA     CLEAR     64  60  87 S3        30.12S
CHENAULT AIRPK NOT AVBL

$$

LAZ027-028-210500-
CENTRAL LOUISIANA

CITY           SKY/WX    TMP DP  RH WIND       PRES   REMARKS
FORT POLK      CLEAR     67  56  67 CALM      30.10S
ALEXANDRIA INT CLEAR     67  56  67 SW5       30.08S
ALEXANDRIA     CLEAR     60  56  86 CALM      30.09S

$$

LAZ001-002-210500-
NORTHWEST LOUISIANA

CITY           SKY/WX    TMP DP  RH WIND       PRES   REMARKS
SHREVEPORT     PTCLDY    64  58  80 SE3       30.06F
BARKSDALE AFB  PTCLDY    65  60  83 CALM      30.07F
DTN SHREVEPORT PTCLDY    66  58  75 CALM      30.07F

$$

LAZ014-016-210500-
NORTHEAST LOUISIANA

CITY           SKY/WX    TMP DP  RH WIND       PRES   REMARKS
MONROE         CLEAR     60  54  80 CALM      30.09F
TALLULAH       CLEAR     64  58  80 CALM      30.10S

$$




USA.gov is the U.S. government's official web portal to all federal, state and local government web resources and services.